Station MKGM4 - Muskegon CG Station, Muskegon, MI Image indicating link to RSS feed of recent meteorological observations for station MKGM4


Conditions at MKGM4 as of
(8:50 pm EDT on 07/13/2024)
0050 GMT on 07/14/2024:
     

Click on the graph icon in the table below to see a time series plot of the last five days of that observation.

5-day plot - Wind Direction Wind Direction (WDIR): SE ( 140 deg true )
5-day plot - Wind Speed Wind Speed (WSPD): 14 kts
5-day plot - Wind Gust Wind Gust (GST): 15 kts
5-day plot - Atmospheric Pressure Atmospheric Pressure (PRES):30.00 in
5-day plot - Air Temperature Air Temperature (ATMP): 78.8 °F
5-day plot - Dew Point Dew Point (DEWP): 68.5 °F
5-day plot - Heat Index Heat Index (HEAT): 81.1 °F
5-day plot -  Wind Speed, Wind Gust and Atmospheric Pressure Combined plot of Wind Speed, Gust, and Air Pressure
Previous observations
TIME
(EDT)
5-day plot - Wind Direction
WDIR
 
5-day plot - Wind Speed
WSPD
kts
5-day plot - Wind Gust
GST
kts
5-day plot - Wave Height
WVHT
ft
5-day plot - Dominant Wave Period
DPD
sec
5-day plot - Average Wave Period
APD
sec
5-day plot - Mean Wave Direction
MWD
 
5-day plot - Atmospheric Pressure
PRES
in
5-day plot - Pressure Tendency
PTDY
in
5-day plot - Air Temperature
ATMP
°F
5-day plot - Water Temperature
WTMP
°F
5-day plot - Dew Point
DEWP
°F
5-day plot - Salinity
SAL
psu
5-day plot - Visibility
VIS
nmi
5-day plot - Tide (above MLLW)
TIDE
ft
2024-07-13 08:40 pm SE 14 15----30.01- 78.4- 68.4---
2024-07-13 08:30 pm SE 13 13----30.01- 78.3- 67.8---
2024-07-13 08:20 pm SE 12 13----30.02- 77.7- 68.2---
2024-07-13 08:10 pm SE 11 11----30.03- 77.5- 67.3---
2024-07-13 08:00 pmSSE 11 11----30.03-0.06 77.9- 66.6---
2024-07-13 07:50 pmSSE 12 12----30.03- 78.3- 65.7---
2024-07-13 07:40 pm SE 11 12----30.03- 77.9- 66.4---
2024-07-13 07:30 pmSSE 10 11----30.03- 77.4- 67.3---
2024-07-13 07:20 pmSSE 11 11----30.03- 78.3- 66.0---
2024-07-13 07:10 pmSSE 12 12----30.03- 78.6- 65.3---
2024-07-13 07:00 pmSSE 13 13----30.02-0.09 78.3- 65.8---
2024-07-13 06:50 pm SE 11 12----30.03- 77.7- 67.5---
2024-07-13 06:40 pmSSE 10 11----30.04- 77.0- 68.4---
2024-07-13 06:30 pm SE 10 10----30.04- 76.6- 68.2---
2024-07-13 06:20 pmSSE 8 9----30.05- 75.4- 67.5---
2024-07-13 06:10 pmSSE 8 9----30.05- 75.6- 67.3---
2024-07-13 06:00 pmSSE 8 8----30.06-0.06 75.4- 67.6---
2024-07-13 05:50 pmSSE 8 8----30.06- 74.8- 68.4---
2024-07-13 05:40 pmSSE 8 8----30.07- 74.5- 68.5---
2024-07-13 05:30 pmSSE 7 8----30.08- 74.5- 68.4---
2024-07-13 05:20 pmSSE 7 7----30.08- 74.5- 68.4---
2024-07-13 05:10 pmSSE 6 6----30.09- 74.3- 68.9---
2024-07-13 05:00 pm SE 4 5----30.09-0.04 74.1- 70.3---
2024-07-13 04:50 pmSSE 5 5----30.10- 73.9- 69.6---
2024-07-13 04:40 pmSSE 5 6----30.10- 73.9- 69.3---
2024-07-13 04:30 pm S 5 5----30.11- 73.9- 69.1---
2024-07-13 04:20 pmSSE 6 6----30.11- 73.8- 68.7---
2024-07-13 04:10 pmSSE 6 6----30.11- 73.4- 68.7---
2024-07-13 04:00 pmSSE 6 6----30.11-0.03 73.4- 69.3---
2024-07-13 03:50 pmSSE 6 6----30.11- 73.4- 68.7---
2024-07-13 03:40 pmSSE 6 6----30.11- 73.0- 69.6---
2024-07-13 03:30 pmSSE 6 6----30.11- 73.4- 68.9---
2024-07-13 03:20 pmSSE 5 6----30.11- 73.4- 68.2---
2024-07-13 03:10 pm S 6 6----30.11- 73.4- 67.3---
2024-07-13 03:00 pm S 5 5----30.12-0.03 73.4- 66.7---
2024-07-13 02:50 pm S 5 5----30.12- 73.6- 66.4---
2024-07-13 02:40 pm S 6 6----30.12- 73.2- 66.7---
2024-07-13 02:30 pm S 5 5----30.12- 73.2- 67.8---
2024-07-13 02:20 pm S 4 4----30.13- 73.2- 67.1---
2024-07-13 02:10 pmSSW 4 4----30.14- 72.9- 68.0---
2024-07-13 02:00 pm S 3 3----30.14-0.01 72.7- 68.7---
2024-07-13 01:50 pm SW 3 3----30.14- 73.0- 68.2---
2024-07-13 01:40 pm SW 2 2----30.14- 73.2- 67.8---
2024-07-13 01:30 pmSSW 2 2----30.14- 72.7- 67.1---
2024-07-13 01:20 pmSSW 3 3----30.14- 72.5- 67.6---
2024-07-13 01:10 pmSSW 3 3----30.14- 72.3- 67.6---
2024-07-13 01:00 pmSSW 3 3----30.14-0.01 72.1- 68.0---
2024-07-13 12:50 pm S 3 3----30.13- 72.0- 67.6---
2024-07-13 12:40 pm S 3 4----30.14- 72.0- 67.6---
2024-07-13 12:30 pm S 3 4----30.14- 71.8- 68.5---
2024-07-13 12:20 pm S 2 2----30.14- 71.8- 68.7---
2024-07-13 12:10 pmSSW 2 2----30.14- 71.6- 68.9---
2024-07-13 12:00 pm S 2 3----30.14+0.00 71.4- 68.4---
2024-07-13 11:50 am S 2 3----30.14- 71.6- 68.0---
2024-07-13 11:40 amSSW 2 3----30.14- 71.8- 68.4---
2024-07-13 11:30 amWSW 1 2----30.15- 72.0- 68.7---
2024-07-13 11:20 am W 1 2----30.15- 72.3- 68.9---
2024-07-13 11:10 am W 2 3----30.15- 71.6- 68.5---
2024-07-13 11:00 amWSW 2 2----30.15+0.00 71.2- 68.2---
2024-07-13 10:50 amWSW 2 2----30.15- 70.5- 67.8---
2024-07-13 10:40 amSSW 2 3----30.14- 70.0- 67.5---
2024-07-13 10:30 am S 1 1----30.15- 69.8- 67.3---
2024-07-13 10:20 am S 2 2----30.15- 69.6- 67.1---
2024-07-13 10:10 amSSE 3 3----30.15- 69.3- 66.6---
2024-07-13 10:00 amSSE 4 4----30.15+0.01 69.3- 66.2---
2024-07-13 09:50 amSSE 5 5----30.15- 69.3- 66.0---
2024-07-13 09:40 amSSE 4 4----30.15- 69.1- 66.6---
2024-07-13 09:30 am S 4 5----30.16- 69.1- 66.7---
2024-07-13 09:20 am S 5 5----30.16- 69.6- 67.3---
2024-07-13 09:10 am S 5 6----30.15- 69.6- 67.3---
2024-07-13 09:00 amSSE 5 5----30.14+0.00 69.8- 67.5---
2024-07-13 08:50 amSSE 5 6----30.14- 70.0- 66.7---
2024-07-13 08:40 am SE 5 6----30.14- 69.4- 65.1---
2024-07-13 08:30 am SE 5 6----30.14- 69.1- 64.8---
2024-07-13 08:20 amSSE 5 5----30.14- 68.9- 64.6---
2024-07-13 08:10 am SE 4 4----30.14- 68.9- 64.6---
2024-07-13 08:00 amSSE 2 3----30.14+0.03 69.6- 65.1---
2024-07-13 07:50 amSSE 3 3----30.14- 70.0- 64.6---
2024-07-13 07:40 amSSE 1 2----30.14- 70.3- 63.9---
2024-07-13 07:30 amESE 2 2----30.14- 70.0- 63.9---
2024-07-13 07:20 amESE 2 2----30.14- 69.4- 63.9---
2024-07-13 07:10 amESE 2 2----30.14- 69.1- 64.8---
2024-07-13 07:00 amESE 2 2----30.14+0.01 68.4- 66.0---
2024-07-13 06:50 am E 2 2----30.14- 68.0- 66.9---
2024-07-13 06:40 amESE 3 3----30.14- 67.8- 66.6---
2024-07-13 06:30 am E 2 2----30.14- 68.2- 65.8---
2024-07-13 06:20 am E 1 2----30.14- 68.0- 66.2---
2024-07-13 06:10 am E 2 2----30.14- 68.0- 66.2---
2024-07-13 06:00 amESE 2 2----30.14+0.01 67.6- 66.7---
2024-07-13 05:50 am E 1 1----30.14- 68.0- 66.9---
2024-07-13 05:40 am E 1 1----30.13- 68.2- 66.9---
2024-07-13 05:30 am E 3 3----30.13- 68.2- 66.7---
2024-07-13 05:20 amESE 3 4----30.12- 67.5- 66.2---
2024-07-13 05:10 am E 2 3----30.12- 67.5- 66.9---
2024-07-13 05:00 am E 2 2----30.12-0.01 67.6- 66.9---
2024-07-13 04:50 am- 0 1----30.12- 67.8- 66.7---
2024-07-13 04:40 am E 2 3----30.12- 67.8- 66.6---
2024-07-13 04:30 am E 3 4----30.12- 67.8- 67.3---
2024-07-13 04:20 amENE 3 4----30.12- 68.0- 67.6---
2024-07-13 04:10 amENE 3 4----30.13- 68.2- 67.5---
2024-07-13 04:00 amENE 4 4----30.12+0.00 68.0- 66.9---
2024-07-13 03:50 amENE 4 4----30.12- 68.0- 67.1---
2024-07-13 03:40 amENE 5 6----30.12- 68.7- 67.6---
2024-07-13 03:30 amENE 6 7----30.11- 68.7- 67.5---
2024-07-13 03:20 amENE 5 6----30.11- 68.7- 67.8---
2024-07-13 03:10 am E 6 7----30.12- 68.4- 66.7---
2024-07-13 03:00 amENE 6 7----30.12+0.02 68.0- 65.5---
2024-07-13 02:50 amENE 6 7----30.12- 68.2- 64.9---
2024-07-13 02:40 am NE 6 6----30.12- 68.2- 64.9---
2024-07-13 02:30 am NE 5 6----30.12- 67.8- 65.1---
2024-07-13 02:20 amNNE 3 4----30.13- 68.2- 65.8---
2024-07-13 02:10 amENE 2 3----30.13- 68.9- 66.6---
2024-07-13 02:00 am NE 2 3----30.13+0.03 68.9- 64.0---
2024-07-13 01:50 am N 2 3----30.13- 68.2- 65.1---
2024-07-13 01:40 amNNW 1 1----30.13- 69.1- 66.4---
2024-07-13 01:30 am- 0 0----30.13- 69.3- 66.0---
2024-07-13 01:20 am- 0 0----30.13- 69.1- 66.2---
2024-07-13 01:10 am S 1 1----30.12- 69.4- 65.7---
2024-07-13 01:00 am S 1 1----30.12+0.02 69.3- 67.3---
2024-07-13 12:50 am- 0 0----30.11- 69.8- 67.1---
2024-07-13 12:40 am- 0 0----30.11- 70.0- 66.2---
2024-07-13 12:30 amSSE 1 1----30.11- 70.2- 66.2---
2024-07-13 12:20 amSSE 2 2----30.11- 69.6- 65.5---
2024-07-13 12:10 am SE 4 4----30.10- 69.8- 64.6---
2024-07-13 12:00 amSSE 3 3----30.10+0.01 69.8- 64.4---
2024-07-12 11:50 pmSSE 2 2----30.10- 70.7- 65.1---
2024-07-12 11:40 pm SE 2 2----30.10- 70.2- 66.9---
2024-07-12 11:30 pm E 3 3----30.10- 71.1- 69.1---
2024-07-12 11:20 pm E 3 4----30.10- 70.9- 67.8---
2024-07-12 11:10 pm E 2 2----30.10- 72.3- 64.9---
2024-07-12 11:00 pmNNE 1 1----30.10+0.02 71.4- 64.9---
2024-07-12 10:50 pm NE 1 1----30.11- 71.2- 65.8---
2024-07-12 10:40 pmNNW 3 3----30.10- 71.6- 64.9---
2024-07-12 10:30 pmNNW 3 3----30.10- 71.6- 65.5---
2024-07-12 10:20 pm N 1 2----30.10- 71.4- 66.4---
2024-07-12 10:10 pm NW 4 4----30.10- 70.9- 66.0---
2024-07-12 10:00 pm NW 4 5----30.10+0.02 71.2- 66.0---
2024-07-12 09:50 pmNNW 5 5----30.09- 70.7- 65.7---
2024-07-12 09:40 pm NW 6 6----30.09- 70.7- 65.8---
2024-07-12 09:30 pm NW 6 6----30.09- 71.2- 66.2---
2024-07-12 09:20 pm NW 7 8----30.09- 71.1- 66.7---
2024-07-12 09:10 pm NW 8 9----30.09- 70.5- 67.6---
2024-07-12 09:00 pm NW 7 8----30.09+0.02 70.3- 69.6---
2024-07-12 08:50 pm NW 7 8----30.09- 71.4- 69.6---